Location: *
(38.9800°N, 16.0500°E)
Time: 07:13:47
(UTC+00:00)

Cosmos 1867 - Pass Details

Date: 07 April 2020
Orbit: 778 x 798 km, 65.0° (Epoch: 25 May)

Event Time Altitude Azimuth Distance (km) Brightness Sun altitude
Exits shadow 02:46:41 17° 184° (S) 1,897 5.2 -20.0°
Maximum altitude 02:50:37 49° 115° (ESE) 1,009 4.3 -19.3°
Drops below altitude 10° 02:55:51 10° 42° (NE) 2,367 7.1 -18.4°
Sets 02:58:21 0° 37° (NE) 3,303 7.9 -18.0°
